This is the latest recevied weather packets stored in our database for station/object KN6ETB-1. If no packets are shown the sender has not sent any weather packets the latest 10 day(s).
| Time | Temp. | Humidity | Pressure | Rain* | Wind** | Luminosity | Snow |
|---|---|---|---|---|---|---|---|
| 1777928009 | 17.78° C | 57% | 1012.4 hPa | 0 mm | - | 267 W/m² | - |
| 1777927707 | 17.78° C | 57% | 1012.4 hPa | 0 mm | - | 216 W/m² | - |
| 1777927406 | 17.78° C | 58% | 1012.4 hPa | 0 mm | - | 230 W/m² | - |
| 1777927105 | 17.78° C | 59% | 1012.6 hPa | 0 mm | - | 261 W/m² | - |
| 1777926801 | 17.78° C | 59% | 1012.2 hPa | 0 mm | - | 270 W/m² | - |
| 1777926497 | 17.78° C | 60% | 1012.4 hPa | 0 mm | - | 234 W/m² | - |
| 1777926194 | 17.22° C | 60% | 1012.4 hPa | 0 mm | - | 229 W/m² | - |
| 1777925891 | 17.22° C | 60% | 1012.5 hPa | 0 mm | - | 218 W/m² | - |
| 1777925588 | 17.78° C | 61% | 1012.4 hPa | 0 mm | - | 212 W/m² | - |
| 1777925286 | 17.22° C | 63% | 1012.5 hPa | 0 mm | - | 241 W/m² | - |
| 1777924982 | 17.22° C | 62% | 1012.4 hPa | 0 mm | - | 262 W/m² | - |
| 1777924678 | 16.67° C | 65% | 1012.6 hPa | 0 mm | - | 269 W/m² | - |
| 1777924374 | 16.67° C | 64% | 1012.5 hPa | 0 mm | - | 257 W/m² | - |
| 1777924071 | 16.67° C | 63% | 1012.5 hPa | 0 mm | - | 240 W/m² | - |
| 1777923767 | 16.67° C | 63% | 1012.6 hPa | 0 mm | - | 222 W/m² | - |
| 1777923463 | 16.67° C | 63% | 1012.7 hPa | 0 mm | - | 199 W/m² | - |
| 1777923161 | 16.67° C | 64% | 1012.5 hPa | 0 mm | - | 204 W/m² | - |
| 1777922859 | 16.67° C | 65% | 1012.7 hPa | 0 mm | - | 223 W/m² | - |
| 1777922557 | 16.67° C | 64% | 1012.7 hPa | 0 mm | - | 218 W/m² | - |
| 1777922256 | 16.67° C | 63% | 1012.6 hPa | 0 mm | - | 210 W/m² | - |
| 1777921952 | 16.67° C | 63% | 1012.7 hPa | 0 mm | - | 190 W/m² | - |
| 1777921647 | 16.67° C | 64% | 1012.4 hPa | 0 mm | - | 180 W/m² | - |
| 1777921344 | 16.67° C | 64% | 1012.7 hPa | 0 mm | - | 182 W/m² | - |
| 1777921041 | 16.67° C | 65% | 1012.7 hPa | 0 mm | - | 177 W/m² | - |
| 1777920738 | 17.22° C | 64% | 1012.6 hPa | 0 mm | - | 162 W/m² | - |
* Rain latest hour (hover to see other rain measurements)
** Current wind speed in m/s (hover to see current wind gust speed)